This is the latest recevied weather packets stored in our database for station/object SP1BMW-13. If no packets are shown the sender has not sent any weather packets the latest 10 day(s).
| Time | Temp. | Humidity | Pressure | Rain* | Wind** | Luminosity | Snow |
|---|---|---|---|---|---|---|---|
| 1778243880 | 13.33° C | 57% | 1019.9 hPa | 0 mm | 0 m/s | 242 W/m² | - |
| 1778243820 | 13.33° C | 58% | 1020 hPa | 0 mm | 0.89 m/s, 45° | 239 W/m² | - |
| 1778243760 | 13.33° C | 59% | 1020 hPa | 0 mm | 0.45 m/s, 59° | 234 W/m² | - |
| 1778243700 | 13.33° C | 58% | 1019.9 hPa | 0 mm | 0.89 m/s, 11° | 228 W/m² | - |
| 1778243640 | 13.33° C | 58% | 1020 hPa | 0 mm | 0 m/s | 222 W/m² | - |
| 1778243580 | 13.33° C | 57% | 1020.1 hPa | 0 mm | 1.34 m/s, 41° | 214 W/m² | - |
| 1778243520 | 13.33° C | 59% | 1020.1 hPa | 0 mm | 0.45 m/s, 53° | 206 W/m² | - |
| 1778243460 | 12.78° C | 58% | 1020.1 hPa | 0 mm | 0.45 m/s, 48° | 197 W/m² | - |
| 1778243400 | 12.78° C | 59% | 1020.1 hPa | 0 mm | 1.34 m/s, 71° | 189 W/m² | - |
| 1778243341 | 12.78° C | 60% | 1020.2 hPa | 0 mm | 0.89 m/s, 49° | 174 W/m² | - |
| 1778243280 | 12.78° C | 59% | 1020.2 hPa | 0 mm | 0.89 m/s, 49° | 166 W/m² | - |
| 1778243220 | 12.78° C | 60% | 1020 hPa | 0 mm | 0 m/s | 159 W/m² | - |
| 1778243160 | 12.78° C | 59% | 1020.1 hPa | 0 mm | 0.45 m/s, 48° | 157 W/m² | - |
| 1778243100 | 12.78° C | 60% | 1020 hPa | 0 mm | 0 m/s | 160 W/m² | - |
| 1778243040 | 12.78° C | 60% | 1020.1 hPa | 0 mm | 0 m/s | 169 W/m² | - |
| 1778242980 | 12.78° C | 59% | 1020 hPa | 0 mm | 0.45 m/s, 58° | 171 W/m² | - |
| 1778242920 | 12.78° C | 60% | 1020 hPa | 0 mm | 0.45 m/s, 39° | 161 W/m² | - |
| 1778242860 | 12.78° C | 61% | 1019.9 hPa | 0 mm | 0.45 m/s, 24° | 138 W/m² | - |
| 1778242800 | 12.78° C | 60% | 1020.1 hPa | 0 mm | 0.89 m/s, 49° | 116 W/m² | - |
| 1778242741 | 12.78° C | 60% | 1019.8 hPa | 0 mm | 0.45 m/s, 38° | 102 W/m² | - |
| 1778242681 | 12.78° C | 61% | 1020.1 hPa | 0 mm | 0 m/s | 96 W/m² | - |
| 1778242621 | 12.78° C | 61% | 1020.1 hPa | 0 mm | 0.45 m/s, 43° | 90 W/m² | - |
| 1778242560 | 12.78° C | 60% | 1020 hPa | 0 mm | 1.34 m/s, 302° | 87 W/m² | - |
| 1778242500 | 12.22° C | 59% | 1020 hPa | 0 mm | 0.89 m/s, 47° | 85 W/m² | - |
| 1778242441 | 12.22° C | 60% | 1020 hPa | 0 mm | 0.45 m/s, 64° | 83 W/m² | - |
* Rain latest hour (hover to see other rain measurements)
** Current wind speed in m/s (hover to see current wind gust speed)